Home > Time Zones > World Clock > Weather > Spain > Ibiza > Past weeks

Flag for Spain Weather past 2 weeks in Ibiza, Ibiza, Spain

Now
77 °F

Passing clouds.


Feels Like: 79 °F
Forecast: 75 / 81 °F
Wind: 5 mph from Southwest

Location: Ibiza / Es Codola

Current Time: Aug 22, 2014 at 10:18:08 PM

Latest Report: Aug 22, 2014 at 10:00 PM


Visibility: N/A

Pressure: 29.89 "Hg

Humidity: 79%

Dew point: 70 °F

Location of IbizaLocation

Historic Weather in Ibiza — Graph

°F

Ibiza temperature yesterday

Maximum temperature yesterday: 84 °F (at 1:00 PM)
Minimum temperature yesterday: 72 °F (at 4:00 AM)
Average temperature yesterday: 78 °F

Past Weeks' High & Low Weather Summary

 TemperatureHumidityPressure
High90 °F (Aug 13, 12:30 PM)94% (Aug 11, 1:00 AM)30.15 "Hg (Aug 11, 1:00 AM)
Low68 °F (Aug 18, 6:00 AM)38% (Aug 13, 3:00 PM)29.77 "Hg (Aug 13, 6:00 AM)
Average79 °F74%29.95 "Hg
* Reported Aug 7 9:00 PM — Aug 22 9:00 PM, Ibiza, Weather by CustomWeather, © 2014

Note: Actual official high and low records may vary slightly from our data, if they occured in-between our weather recording intervals... More about our weather records

Advertising

Ibiza weather history for previous 24 hours

 ConditionsComfort  
Time TempWeatherWind HumidityBarometerVisibility
9:00 PM
Aug 22
77 °FPassing clouds.6 mph79%29.89 "HgN/A
8:00 PM79 °FPassing clouds.5 mph74%29.86 "HgN/A
7:30 PM81 °FPassing clouds.7 mph70%29.89 "HgN/A
7:00 PM81 °FPassing clouds.6 mph70%29.89 "HgN/A
6:30 PM82 °FScattered clouds.6 mph62%29.89 "HgN/A
6:00 PM81 °FScattered clouds.5 mph70%29.92 "HgN/A
5:30 PM82 °FScattered clouds.7 mph66%29.92 "HgN/A
5:00 PM84 °FScattered clouds.9 mph62%29.92 "HgN/A
4:30 PM84 °FScattered clouds.7 mph58%29.92 "HgN/A
4:00 PM84 °FScattered clouds.9 mph62%29.92 "HgN/A
3:30 PM84 °FScattered clouds.10 mph62%29.95 "HgN/A
3:00 PM82 °FScattered clouds.9 mph66%29.95 "HgN/A
2:30 PM84 °FScattered clouds.9 mph62%29.95 "HgN/A
2:00 PM82 °FScattered clouds.10 mph66%29.95 "HgN/A
1:30 PM84 °FScattered clouds.10 mph62%29.98 "HgN/A
1:00 PM82 °FPassing clouds.10 mph66%29.98 "HgN/A
12:30 PM82 °FPassing clouds.9 mph66%29.98 "HgN/A
12:00 PM82 °FPassing clouds.9 mph66%29.98 "HgN/A
11:30 AM82 °FPassing clouds.9 mph66%29.98 "HgN/A
11:00 AM82 °FPassing clouds.9 mph66%29.98 "HgN/A
10:30 AM81 °FPassing clouds.7 mph70%29.98 "HgN/A
10:00 AM81 °FPassing clouds.6 mph70%29.95 "HgN/A
9:30 AM81 °FPassing clouds.6 mph70%29.95 "HgN/A
9:00 AM79 °FScattered clouds.5 mph70%29.95 "HgN/A
8:30 AM77 °FScattered clouds.No wind79%29.95 "HgN/A
8:00 AM73 °FPassing clouds.No wind89%29.95 "HgN/A
7:30 AM73 °FPassing clouds.1 mph83%29.95 "HgN/A
7:00 AM72 °FPassing clouds.No wind88%29.95 "HgN/A
6:30 AM73 °FPassing clouds.1 mph83%29.95 "HgN/A
6:00 AM75 °FPassing clouds.1 mph83%29.95 "HgN/A
5:30 AM75 °FPassing clouds.1 mph78%29.95 "HgN/A
5:00 AM75 °FPassing clouds.2 mph78%29.95 "HgN/A
4:30 AM77 °FPassing clouds.3 mph79%29.95 "HgN/A
4:00 AM75 °FPassing clouds.2 mph78%29.95 "HgN/A
3:30 AM77 °FPassing clouds.3 mph74%29.95 "HgN/A
2:30 AM77 °FClear.5 mph74%29.95 "Hg10 mi
2:00 AM77 °FClear.6 mph79%29.98 "Hg10 mi
1:30 AM77 °FPassing clouds.3 mph79%29.98 "HgN/A
1:00 AM77 °FPassing clouds.2 mph79%29.98 "HgN/A
12:30 AM77 °FPassing clouds.3 mph79%29.98 "HgN/A
12:00 AM77 °FPassing clouds.3 mph79%29.98 "HgN/A
11:30 PM
Aug 21
79 °FPassing clouds.5 mph74%29.98 "HgN/A
11:00 PM79 °FPassing clouds.2 mph74%29.98 "HgN/A
10:30 PM79 °FPassing clouds.7 mph74%29.98 "HgN/A
10:00 PM77 °FPassing clouds.7 mph79%29.98 "HgN/A
Weather by CustomWeather, © 2014

See weather overviewHow to use our weather pages